Regional Weather Roundup
Issued by NWS Kansas City/Pleasant Hill, MO

Home | Current Version | Previous Version | Graphics & Text | Print | Product List | Glossary Off
Versions: 1 2 3 4 5 6 7 8 9 10 11 12 13 14 15 16 17 18 19 20 21 22 23 24 25 26 27

000
ASUS43 KEAX 280910
RWREAX

WEATHER ROUNDUP FOR EASTERN KANSAS AND NORTHWEST MISSOURI
NATIONAL WEATHER SERVICE KANSAS CITY/PLEASANT HILL MO
400 AM CDT WED JUN 28 2017

KSZ040-057-103>105-MOZ028-029-037-043-281000-
...KANSAS CITY METROPOLITAN AREA...

CITY           SKY/WX    TMP DP  RH WIND       PRES   REMARKS
K.C. INTL      CLOUDY    74  65  73 S21G26    29.84F
K.C. DOWNTOWN  CLOUDY    75  65  70 S15G26    29.84F
LEES SUMMIT    CLOUDY    73  65  75 S18G26    29.87F
OLATHE - IXD   MOCLDY    72  64  76 S15       29.86F
OLATHE - OJC   MOCLDY    71  65  81 S13       29.86F
LAWRENCE       CLOUDY    74  66  76 S13G23    29.83S

$$

MOZ001>008-011>017-020>025-030>033-038>040-044>046-053-054-281000-
...NORTHERN AND CENTRAL MISSOURI...

CITY           SKY/WX    TMP DP  RH WIND       PRES   REMARKS
ST. JOSEPH     CLOUDY    75  66  73 S15G22    29.81R
MOSBY          CLOUDY    73  63  68 S10G17    29.85S
WARRENSBURG    CLOUDY    72  61  68 S14G20    29.89S
WHITEMAN AFB   CLOUDY    70  70  99 S14       29.89S
CLINTON        CLOUDY    72  63  73 S10       29.93S
SEDALIA        MOCLDY    70  65  84 S14       29.93F
WARSAW         NOT AVBL
CHILLICOTHE      N/A     73  65  75 S7        29.87R
KIRKSVILLE     CLOUDY    70  63  78 S15       29.89F

$$

MOZ041-047>049-056>058-063>065-088>090-097-281000-
...EASTERN AND SOUTHERN MISSOURI...

CITY           SKY/WX    TMP DP  RH WIND       PRES   REMARKS
ST. LOUIS INTL PTCLDY    70  57  63 S8        30.01R
SPIRIT OF STL  CLOUDY    68  60  75 S3        29.99R
COLUMBIA       PTCLDY    67  64  90 S10       29.95F
JEFFERSON CITY CLOUDY    70  62  76 SE6       29.95F
ROLLA          CLEAR     65  62  90 S12       29.98F
OSAGE BEACH    PTCLDY    67  63  87 S6        29.97F
SPRINGFIELD    CLEAR     68  63  84 S12       29.97F
BRANSON        CLEAR     63  61  94 CALM      30.02S
JOPLIN         CLEAR     71  64  78 S12       29.94S
WEST PLAINS    CLEAR     65  63  93 S5        30.05R

$$

IAZ060-094-KSZ022-034>040-054-083-096-NEZ052-066-093-281000-
...KANSAS...SOUTHEAST NEBRASKA AND IOWA...

CITY           SKY/WX    TMP DP  RH WIND       PRES   REMARKS
TOPEKA         CLOUDY    76  67  73 S18G25    29.81R
MANHATTAN      CLOUDY    77  67  71 SW24G30   29.81R
EMPORIA        PTCLDY    72  66  81 S16G25    29.85R
WICHITA        CLOUDY    74  66  76 S18       29.85R
OMAHA          TSTM      68  63  84 S13G23    29.82R
LINCOLN        CLOUDY    64  62  93 E13       29.77F THUNDER
FALLS CITY     CLOUDY    76  64  66 W9        29.83R
LAMONI         CLOUDY    72  64  76 S15       29.83R
DES MOINES     CLOUDY    75  63  66 S18       29.78R THUNDER

$$





USA.gov is the U.S. government's official web portal to all federal, state and local government web resources and services.